Regional Weather Roundup
Issued by NWS State College, PA

Home | Current Version | Previous Version | Graphics & Text | Print | Product List | Glossary Off
Versions: 1 2 3 4 5 6 7 8 9 10 11 12 13 14 15 16 17 18 19 20 21 22 23 24 25 26 27 28 29 30 31 32 33 34 35 36 37 38 39 40 41 42 43 44 45 46 47 48 49 50

245
ASUS41 KCTP 282203
RWRCTP

REGIONAL WEATHER ROUNDUP
NATIONAL WEATHER SERVICE STATE COLLEGE PA
600 PM EDT WED JUN 28 2017

Note: "fair" indicates few or no clouds below 12,000 feet with no
significant weather and/or obstructions to visibility.

* = STATION THAT DOES NOT REPORT PRECIPITATION /E.G. RAIN...SNOW...ETC/
    THUNDER OR FOG.

PAZ002>004-007>009-013>016-020>023-029>032-282300-
WESTERN PENNSYLVANIA

CITY           SKY/WX    TMP DP  RH WIND       PRES   REMARKS
ERIE           CLOUDY    72  49  44 NW5       30.07F
MEADVILLE      CLOUDY    72  51  47 SW6       30.10F
FRANKLIN*      CLOUDY    70  48  46 SW9       30.12F
NEW CASTLE     FAIR      74  51  44 SW7       30.11F
BEAVER COUNTY  SUNNY     73  52  46 S7        30.12F
BUTLER*        MOSUNNY   73  50  43 SW6       30.12F
PITTSBURGH INT CLOUDY    74  51  44 SW9       30.11F
PITTSBURGH     CLOUDY    73  48  41 S9        30.12F
INDIANA*       SUNNY     72  52  49 SW8       30.16F
LATROBE        PTSUNNY   73  52  46 SW12      30.14F
WASHINGTON CO* CLOUDY    73  52  46 S5        30.15F
$$

PAZ004>006-010>012-017>019-024>028-033>037-041-042-045-046-049>053-282300-
CENTRAL PENNSYLVANIA

CITY           SKY/WX    TMP DP  RH WIND       PRES   REMARKS
BRADFORD       CLOUDY    69  49  48 W6        30.12F
DUBOIS         CLOUDY    70  48  45 SW9       30.12F
CLEARFIELD     CLOUDY    72  49  44 SW7       30.13F
JOHNSTOWN      CLOUDY    71  48  43 SW10      30.16F
ALTOONA        CLOUDY    74  49  41 S7        30.14F
STATE COLLEGE  MOSUNNY   73  50  43 S9        30.13S
WILLIAMSPORT   MOSUNNY   79  50  36 SW12      30.07F
SELINSGROVE    SUNNY     79  50  36 VRB3      30.10S
FT INDIANTOWN  NOT AVBL
CAPITAL CITY   MOSUNNY   79  46  31 SW8       30.11F
HARRISBURG     PTSUNNY   79  49  34 SW6       30.11S
YORK           SUNNY     77  48  35 VRB3      30.13F
$$

PAZ038>040-043-044-047-048-054-055-060>062-067>071-282300-
EASTERN PENNSYLVANIA

CITY           SKY/WX    TMP DP  RH WIND       PRES   REMARKS
SCRANTON       SUNNY     76  50  40 VRB6      30.09F
MOUNT POCONO   SUNNY     69  49  48 W9        30.13F
ALLENTOWN      SUNNY     78  51  38 W10       30.10F
QUAKERTOWN*    PTCLDY    77  52  41 SW3       30.13S
READING        MOSUNNY   78  50  37 W8        30.10F
LANCASTER      SUNNY     78  50  37 W6        30.12F
COATESVILLE    CLEAR     75  48  38 VRB5      30.15F
POTTSTOWN      MOSUNNY   75  48  38 W6        30.13F
BLUE BELL      SUNNY     77  50  38 CALM      30.13F
DOYLESTOWN     SUNNY     77  49  37 SW6       30.11F
WILLOW GROVE   NOT AVBL
NORTH PHILA    MOSUNNY   80  51  36 SW9       30.13F
PHILADELPHIA   PTSUNNY   79  47  32 SW6       30.12F
$$




USA.gov is the U.S. government's official web portal to all federal, state and local government web resources and services.